Home > Weather > Zarqa > Past weeks

Flag for Jordan Past Weather in Zarqa, Jordan — Yesterday and Last 2 Weeks

Now
77 °F

Clear.


Feels Like: 78 °F
Forecast: 58 / 89 °F
Wind: 5 mph from Northwest

Location: Amman Airport

Current Time: May 30, 2016 at 1:49:27 PM

Latest Report: May 30, 2016 at 1:00 PM


Visibility: 4 mi

Pressure: 30.04 "Hg (28.00 "Hg at 615m altitude)

Humidity: 28%

Dew Point: 41 °F

Location of ZarqaLocation

Past Weather in Zarqa — Graph

°F

Zarqa Temperature Yesterday

Maximum temperature yesterday: 73 °F (at 2:00 PM)
Minimum temperature yesterday: 57 °F (at 4:00 AM)
Average temperature yesterday: 65 °F

High & Low Weather Summary for the Past Weeks

 TemperatureHumidityPressure
High100 °F (May 16, 2:00 PM)100% (May 24, 3:00 AM)30.12 "Hg (May 24, 3:00 AM)
Low54 °F (May 20, 5:00 AM)7% (May 21, 1:00 PM)29.80 "Hg (May 26, 5:00 PM)
Average71 °F47%29.97 "Hg
* Reported May 15 12:00 PM — May 30 12:00 PM, Zarqa, Weather by CustomWeather, © 2016

Note: Actual official high and low records may vary slightly from our data, if they occured in-between our weather recording intervals... More about our weather records

Advertising

Zarqa Weather History for the Previous 24 Hours

Scroll right to see more
 ConditionsComfort  
Time TempWeatherWind HumidityBarometerVisibility
12:00 PM
Mon, May 30
75 °FClear.7 mph34%30.04 "Hg5 mi
11:00 AM73 °FClear.5 mph36%30.04 "Hg5 mi
10:00 AM72 °FClear.5 mph38%30.04 "Hg5 mi
9:00 AM70 °FClear.3 mph40%30.04 "Hg4 mi
8:00 AM66 °FClear.7 mph43%30.04 "Hg4 mi
7:00 AM63 °FClear.3 mph52%30.04 "Hg3 mi
6:00 AM59 °FClear.6 mph55%30.01 "Hg3 mi
5:00 AM59 °FClear.2 mph55%30.01 "Hg3 mi
4:00 AM59 °FClear.3 mph59%30.01 "Hg4 mi
3:00 AM61 °FClear.6 mph55%30.01 "Hg4 mi
2:00 AM61 °FClear.3 mph52%30.01 "Hg4 mi
1:00 AM63 °FClear.No wind52%30.01 "Hg4 mi
12:00 AM63 °FClear.No wind52%30.01 "Hg4 mi
11:00 PM
Sun, May 29
63 °FClear.7 mph59%30.01 "Hg4 mi
10:00 PM64 °FClear.9 mph60%30.01 "Hg4 mi
9:00 PM64 °FClear.8 mph60%30.01 "Hg4 mi
8:00 PM68 °FPassing clouds.5 mph53%29.98 "Hg4 mi
7:00 PM70 °FScattered clouds.15 mph53%29.98 "Hg5 mi
6:00 PM73 °FScattered clouds.6 mph47%29.98 "Hg5 mi
5:00 PM73 °FScattered clouds.7 mph41%29.98 "Hg5 mi
4:00 PM73 °FScattered clouds.14 mph36%29.98 "Hg5 mi
3:00 PM73 °FScattered clouds.7 mph38%29.98 "Hg4 mi
2:00 PM73 °FScattered clouds.7 mph41%29.98 "Hg3 mi
1:00 PM72 °FScattered clouds.7 mph47%29.98 "Hg3 mi
Weather by CustomWeather, © 2016

See weather overviewHow to use our weather pages